ONEWEB-0112

Last updated on April 25, 2021, 12:02 a.m. UTC

1 48051U 21025K   21114.58336806 -.01084938  00000-0 -45109-1 0  9991
2 48051  87.4225 339.3373 0007267 144.0304 141.0150 15.26754502  1771
UTC
Height (km)
Latitude
Longitude
Inclination
Orbital Period
UTC large
Height (km)
Speed (km/s)
/
Latitude / Longitude
Inclination (degrees)
Orbital Period (minutes)
Azimuth
Elevation
Range (km)
Doppler Factor
iOS Compass Heading
iOS Angle

Next 30 passes for location: Hong Kong

Rise time Rise Azimuth (degrees) Set time Set Azimuth (degrees) Duration Max altitude (degrees)

No matching passes for this satellites